This is the latest recevied weather packets stored in our database for station/object KD4MBW. If no packets are shown the sender has not sent any weather packets the latest 10 day(s).
| Time | Temp. | Humidity | Pressure | Rain* | Wind** | Luminosity | Snow |
|---|---|---|---|---|---|---|---|
| 1788098664 | 27.22° C | 89% | 1018.9 hPa | 0 mm | - | 411 W/m² | - |
| 1788098363 | 27.22° C | 90% | 1019.1 hPa | 0 mm | - | 397 W/m² | - |
| 1788098059 | 27.22° C | 91% | 1019.4 hPa | 0 mm | - | 385 W/m² | - |
| 1788097755 | 26.67° C | 91% | 1019.1 hPa | 0 mm | - | 370 W/m² | - |
| 1788097450 | 26.67° C | 91% | 1019.2 hPa | 0 mm | - | 354 W/m² | - |
| 1788097145 | 26.67° C | 92% | 1019.1 hPa | 0 mm | - | 333 W/m² | - |
| 1788096841 | 26.11° C | 92% | 1019.5 hPa | 0 mm | - | 298 W/m² | - |
| 1788096535 | 26.11° C | 92% | 1019.1 hPa | 0 mm | - | 302 W/m² | - |
| 1788096232 | 26.11° C | 92% | 1019 hPa | 0 mm | - | 290 W/m² | - |
| 1788095930 | 25.56° C | 93% | 1018.9 hPa | 0 mm | - | 305 W/m² | - |
| 1788095625 | 25° C | 95% | 1019.2 hPa | 0 mm | - | 254 W/m² | - |
| 1788095320 | 24.44° C | 96% | 1019 hPa | 0 mm | - | 142 W/m² | - |
| 1788095016 | 24.44° C | 96% | 1018.9 hPa | 0 mm | - | 103 W/m² | - |
| 1788094714 | 24.44° C | 96% | 1018.8 hPa | 0 mm | - | 95 W/m² | - |
| 1788094410 | 24.44° C | 96% | 1018.9 hPa | 0 mm | - | 69 W/m² | - |
| 1788094107 | 24.44° C | 96% | 1019 hPa | 0 mm | - | 69 W/m² | - |
| 1788093802 | 23.89° C | 96% | 1019.1 hPa | 0 mm | - | 85 W/m² | - |
| 1788093499 | 23.89° C | 96% | 1019 hPa | 0 mm | - | 67 W/m² | - |
| 1788093195 | 23.89° C | 97% | 1018.8 hPa | 0 mm | - | 59 W/m² | - |
| 1788092893 | 23.89° C | 97% | 1018.7 hPa | 0 mm | - | 55 W/m² | - |
| 1788092588 | 23.89° C | 97% | 1018.7 hPa | 0 mm | - | 66 W/m² | - |
| 1788092283 | 23.89° C | 96% | 1019 hPa | 0 mm | - | 74 W/m² | - |
| 1788091981 | 23.89° C | 96% | 1018.7 hPa | 0 mm | - | 80 W/m² | - |
| 1788091672 | 23.89° C | 97% | 1018.7 hPa | 0 mm | - | 73 W/m² | - |
| 1788091367 | 23.89° C | 98% | 1018.6 hPa | 0 mm | - | 63 W/m² | - |
* Rain latest hour (hover to see other rain measurements)
** Current wind speed in m/s (hover to see current wind gust speed)